Location: El Portezuelo
(28.4984°N, 16.3589°W)
Time: 18:37:51
(UTC+00:00)

ATLAS 2A CENTAUR R/B - Pass Details

Date: 20 January 2020
Orbit: 251 x 15946 km, 26.9° (Epoch: 28 February)

Event Time Altitude Azimuth Distance (km) Brightness Sun altitude
Exits shadow 07:15:03 - 279° (W) 8,555 7.2 -9.7°
Reaches altitude 10° 07:15:48 10° 279° (W) 8,305 7.1 -9.6°
Maximum altitude 07:34:53 58° 205° (SSW) 1,423 3.9 -5.6°
Drops below altitude 10° 07:39:11 10° 125° (SE) 2,060 6.4 -4.7°
Sets 07:40:33 0° 120° (ESE) 2,623 7.6 -4.5°
